Time,TemperatureF,DewpointF,PressureIn,WindDirection,WindDirectionDegrees,WindSpeedMPH,WindSpeedGustMPH,Humidity,HourlyPrecipIn,Conditions,Clouds,dailyrainin,SolarRadiationWatts/m^2,SoftwareType,DateUTC
2013-10-10 00:02:00,60.8,52.1,29.72,SSE,156,13.0,13.0,73,0.00,,,0.00,0,Wunderground v.1.15,2013-10-10 05:02:00,
2013-10-10 00:07:00,60.7,52.0,29.72,SSE,160,9.0,13.0,73,0.00,,,0.00,0,Wunderground v.1.15,2013-10-10 05:07:00,
2013-10-10 00:12:00,60.7,52.0,29.72,SSE,166,6.0,12.0,73,0.00,,,0.00,0,Wunderground v.1.15,2013-10-10 05:12:00,
2013-10-10 00:17:00,60.7,52.0,29.72,SSE,163,10.0,13.0,73,0.00,,,0.00,0,Wunderground v.1.15,2013-10-10 05:17:00,
2013-10-10 00:22:00,60.8,52.1,29.72,SSE,167,8.0,14.0,73,0.00,,,0.00,0,Wunderground v.1.15,2013-10-10 05:22:00,
2013-10-10 00:27:00,60.8,52.1,29.72,South,173,10.0,14.0,73,0.00,,,0.00,0,Wunderground v.1.15,2013-10-10 05:27:00,
2013-10-10 00:32:00,60.7,52.0,29.72,SSE,164,8.0,12.0,73,0.00,,,0.00,0,Wunderground v.1.15,2013-10-10 05:32:00,
2013-10-10 00:38:00,60.5,52.2,29.72,SSE,166,9.0,12.0,74,0.00,,,0.00,0,Wunderground v.1.15,2013-10-10 05:38:00,
2013-10-10 00:43:00,60.5,52.2,29.72,South,174,12.0,12.0,74,0.00,,,0.00,0,Wunderground v.1.15,2013-10-10 05:43:00,
2013-10-10 00:48:00,60.4,52.1,29.72,SSE,155,7.0,12.0,74,0.00,,,0.00,0,Wunderground v.1.15,2013-10-10 05:48:00,
2013-10-10 00:53:00,60.2,51.9,29.72,South,171,10.0,12.0,74,0.00,,,0.00,0,Wunderground v.1.15,2013-10-10 05:53:00,
2013-10-10 00:58:00,60.1,52.1,29.72,South,169,8.0,12.0,75,0.00,,,0.00,0,Wunderground v.1.15,2013-10-10 05:58:00,
2013-10-10 01:04:00,60.0,52.1,29.72,South,186,12.0,12.0,75,0.00,,,0.00,0,Wunderground v.1.15,2013-10-10 06:04:00,
2013-10-10 01:09:00,60.0,52.1,29.72,South,171,9.0,12.0,75,0.00,,,0.00,0,Wunderground v.1.15,2013-10-10 06:09:00,
2013-10-10 01:14:00,60.0,52.1,29.72,South,170,10.0,14.0,75,0.00,,,0.00,0,Wunderground v.1.15,2013-10-10 06:14:00,
2013-10-10 01:19:00,59.9,52.0,29.72,South,169,9.0,14.0,75,0.00,,,0.00,0,Wunderground v.1.15,2013-10-10 06:19:00,
2013-10-10 01:24:00,60.0,52.1,29.72,South,172,10.0,14.0,75,0.00,,,0.00,0,Wunderground v.1.15,2013-10-10 06:24:00,
2013-10-10 01:30:00,59.9,52.0,29.72,SSE,167,8.0,11.0,75,0.00,,,0.00,0,Wunderground v.1.15,2013-10-10 06:30:00,
2013-10-10 01:35:00,59.8,51.9,29.72,South,185,15.0,15.0,75,0.00,,,0.00,0,Wunderground v.1.15,2013-10-10 06:35:00,
2013-10-10 01:40:00,59.9,52.0,29.72,South,184,7.0,10.0,75,0.00,,,0.00,0,Wunderground v.1.15,2013-10-10 06:40:00,
2013-10-10 01:45:00,59.8,52.2,29.72,South,184,6.0,10.0,76,0.00,,,0.00,0,Wunderground v.1.15,2013-10-10 06:45:00,
2013-10-10 01:50:00,59.6,52.0,29.71,South,182,9.0,9.0,76,0.00,,,0.00,0,Wunderground v.1.15,2013-10-10 06:50:00,
2013-10-10 01:56:00,59.7,52.1,29.71,SSE,165,10.0,16.0,76,0.00,,,0.00,0,Wunderground v.1.15,2013-10-10 06:56:00,
2013-10-10 02:01:00,59.5,51.9,29.71,South,173,10.0,10.0,76,0.00,,,0.00,0,Wunderground v.1.15,2013-10-10 07:01:00,
2013-10-10 02:06:00,59.7,52.1,29.71,SSE,157,14.0,17.0,76,0.00,,,0.00,0,Wunderground v.1.15,2013-10-10 07:06:00,
2013-10-10 02:11:00,59.8,52.2,29.71,South,183,16.0,21.0,76,0.00,,,0.00,0,Wunderground v.1.15,2013-10-10 07:11:00,
2013-10-10 02:16:00,59.9,52.3,29.71,SSE,166,12.0,21.0,76,0.00,,,0.00,0,Wunderground v.1.15,2013-10-10 07:16:00,
2013-10-10 02:21:00,59.9,52.3,29.71,South,179,12.0,17.0,76,0.00,,,0.00,0,Wunderground v.1.15,2013-10-10 07:21:00,
2013-10-10 02:26:00,59.7,52.5,29.71,South,178,10.0,18.0,77,0.00,,,0.00,0,Wunderground v.1.15,2013-10-10 07:26:00,
2013-10-10 02:31:00,59.8,52.6,29.71,SSE,161,8.0,13.0,77,0.00,,,0.00,0,Wunderground v.1.15,2013-10-10 07:31:00,
2013-10-10 02:36:00,59.8,52.6,29.71,South,180,12.0,18.0,77,0.00,,,0.00,0,Wunderground v.1.15,2013-10-10 07:36:00,
2013-10-10 02:42:00,59.8,52.6,29.71,SSE,165,14.0,20.0,77,0.00,,,0.00,0,Wunderground v.1.15,2013-10-10 07:42:00,
2013-10-10 02:47:00,59.7,52.5,29.71,South,170,9.0,20.0,77,0.00,,,0.00,0,Wunderground v.1.15,2013-10-10 07:47:00,
2013-10-10 02:52:00,59.7,52.5,29.71,South,171,10.0,19.0,77,0.00,,,0.00,0,Wunderground v.1.15,2013-10-10 07:52:00,
2013-10-10 02:57:00,59.6,52.4,29.71,South,174,12.0,20.0,77,0.00,,,0.00,0,Wunderground v.1.15,2013-10-10 07:57:00,
2013-10-10 03:02:00,59.7,52.8,29.71,South,176,17.0,19.0,78,0.00,,,0.00,0,Wunderground v.1.15,2013-10-10 08:02:00,
2013-10-10 03:07:00,59.6,52.7,29.70,SSE,162,8.0,19.0,78,0.00,,,0.00,0,Wunderground v.1.15,2013-10-10 08:07:00,
2013-10-10 03:12:00,59.7,52.8,29.71,South,176,11.0,20.0,78,0.00,,,0.00,0,Wunderground v.1.15,2013-10-10 08:12:00,
2013-10-10 03:17:00,59.6,52.7,29.71,South,171,8.0,20.0,78,0.00,,,0.00,0,Wunderground v.1.15,2013-10-10 08:17:00,
2013-10-10 03:22:00,59.5,52.6,29.70,South,178,11.0,21.0,78,0.00,,,0.00,0,Wunderground v.1.15,2013-10-10 08:22:00,
2013-10-10 03:27:00,59.7,52.8,29.70,South,184,13.0,21.0,78,0.00,,,0.00,0,Wunderground v.1.15,2013-10-10 08:27:00,
2013-10-10 03:32:00,59.8,52.9,29.70,South,180,10.0,16.0,78,0.00,,,0.00,0,Wunderground v.1.15,2013-10-10 08:32:00,
2013-10-10 03:37:00,59.5,52.6,29.70,South,178,8.0,18.0,78,0.00,,,0.00,0,Wunderground v.1.15,2013-10-10 08:37:00,
2013-10-10 03:42:00,59.2,52.7,29.71,South,175,9.0,17.0,79,0.00,,,0.00,0,Wunderground v.1.15,2013-10-10 08:42:00,
2013-10-10 03:47:00,59.1,52.6,29.70,South,180,12.0,18.0,79,0.00,,,0.00,0,Wunderground v.1.15,2013-10-10 08:47:00,
2013-10-10 03:52:00,59.2,52.7,29.70,South,188,13.0,17.0,79,0.00,,,0.00,0,Wunderground v.1.15,2013-10-10 08:52:00,
2013-10-10 03:57:00,59.1,52.6,29.70,South,175,9.0,18.0,79,0.00,,,0.00,0,Wunderground v.1.15,2013-10-10 08:57:00,
2013-10-10 04:02:00,59.0,52.8,29.70,SSW,201,12.0,15.0,80,0.00,,,0.00,0,Wunderground v.1.15,2013-10-10 09:02:00,
2013-10-10 04:07:00,58.9,52.7,29.70,South,181,11.0,19.0,80,0.00,,,0.00,0,Wunderground v.1.15,2013-10-10 09:07:00,
2013-10-10 04:12:00,58.7,52.5,29.70,South,188,7.0,13.0,80,0.00,,,0.00,0,Wunderground v.1.15,2013-10-10 09:12:00,
2013-10-10 04:17:00,58.6,52.4,29.70,SSW,200,9.0,19.0,80,0.00,,,0.00,0,Wunderground v.1.15,2013-10-10 09:17:00,
2013-10-10 04:22:00,58.4,52.6,29.70,SSW,193,12.0,18.0,81,0.00,,,0.00,0,Wunderground v.1.15,2013-10-10 09:22:00,
2013-10-10 04:27:00,58.2,52.4,29.70,South,182,10.0,18.0,81,0.00,,,0.00,0,Wunderground v.1.15,2013-10-10 09:27:00,
2013-10-10 04:32:00,58.1,52.3,29.70,South,184,9.0,14.0,81,0.00,,,0.00,0,Wunderground v.1.15,2013-10-10 09:32:00,
2013-10-10 04:37:00,58.0,52.5,29.70,South,188,13.0,15.0,82,0.00,,,0.00,0,Wunderground v.1.15,2013-10-10 09:37:00,
2013-10-10 04:42:00,57.9,52.4,29.70,South,190,12.0,16.0,82,0.00,,,0.00,0,Wunderground v.1.15,2013-10-10 09:42:00,
2013-10-10 04:47:00,57.8,52.3,29.70,South,185,8.0,16.0,82,0.00,,,0.00,0,Wunderground v.1.15,2013-10-10 09:47:00,
2013-10-10 04:52:00,57.7,52.2,29.70,South,181,9.0,15.0,82,0.00,,,0.00,0,Wunderground v.1.15,2013-10-10 09:52:00,
2013-10-10 04:57:00,57.5,52.4,29.70,SSW,198,9.0,15.0,83,0.00,,,0.00,0,Wunderground v.1.15,2013-10-10 09:57:00,
2013-10-10 05:02:00,57.4,52.3,29.70,SSW,193,8.0,15.0,83,0.00,,,0.00,0,Wunderground v.1.15,2013-10-10 10:02:00,
2013-10-10 05:07:00,57.3,52.2,29.70,SSW,193,12.0,18.0,83,0.00,,,0.00,0,Wunderground v.1.15,2013-10-10 10:07:00,
2013-10-10 05:12:00,57.2,52.4,29.70,South,187,13.0,16.0,84,0.00,,,0.00,0,Wunderground v.1.15,2013-10-10 10:12:00,
2013-10-10 05:17:00,57.0,52.2,29.70,South,183,9.0,16.0,84,0.00,,,0.00,0,Wunderground v.1.15,2013-10-10 10:17:00,
2013-10-10 05:22:00,56.9,52.1,29.70,SSE,168,9.0,18.0,84,0.00,,,0.00,0,Wunderground v.1.15,2013-10-10 10:22:00,
2013-10-10 05:27:00,56.9,52.1,29.70,SSE,167,8.0,18.0,84,0.00,,,0.00,0,Wunderground v.1.15,2013-10-10 10:27:00,
2013-10-10 05:32:00,56.9,52.1,29.69,South,182,9.0,16.0,84,0.00,,,0.00,0,Wunderground v.1.15,2013-10-10 10:32:00,
2013-10-10 05:37:00,56.8,52.3,29.69,South,172,9.0,16.0,85,0.00,,,0.00,0,Wunderground v.1.15,2013-10-10 10:37:00,
2013-10-10 05:42:00,56.8,52.3,29.69,South,173,14.0,14.0,85,0.00,,,0.00,0,Wunderground v.1.15,2013-10-10 10:42:00,
2013-10-10 05:47:00,56.8,52.3,29.69,SSE,161,11.0,20.0,85,0.00,,,0.00,0,Wunderground v.1.15,2013-10-10 10:47:00,
2013-10-10 05:52:00,56.8,52.3,29.69,SSE,161,12.0,17.0,85,0.00,,,0.00,0,Wunderground v.1.15,2013-10-10 10:52:00,
2013-10-10 05:57:00,56.8,52.3,29.69,South,170,15.0,19.0,85,0.00,,,0.00,0,Wunderground v.1.15,2013-10-10 10:57:00,
2013-10-10 06:02:00,56.8,52.3,29.69,South,186,15.0,16.0,85,0.00,,,0.00,0,Wunderground v.1.15,2013-10-10 11:02:00,
2013-10-10 06:07:00,56.9,52.4,29.69,SSE,166,15.0,19.0,85,0.00,,,0.00,0,Wunderground v.1.15,2013-10-10 11:07:00,
2013-10-10 06:12:00,56.9,52.4,29.68,South,189,15.0,20.0,85,0.00,,,0.00,0,Wunderground v.1.15,2013-10-10 11:12:00,
2013-10-10 06:17:00,57.0,52.5,29.68,SSE,165,13.0,20.0,85,0.00,,,0.00,0,Wunderground v.1.15,2013-10-10 11:17:00,
2013-10-10 06:22:00,56.9,52.4,29.69,South,176,13.0,18.0,85,0.00,,,0.00,0,Wunderground v.1.15,2013-10-10 11:22:00,
2013-10-10 06:27:00,56.8,52.3,29.69,South,169,8.0,18.0,85,0.00,,,0.00,0,Wunderground v.1.15,2013-10-10 11:27:00,
2013-10-10 06:32:00,56.5,52.4,29.69,South,181,13.0,14.0,86,0.00,,,0.00,0,Wunderground v.1.15,2013-10-10 11:32:00,
2013-10-10 06:37:00,56.4,52.3,29.69,SSE,164,9.0,16.0,86,0.00,,,0.00,0,Wunderground v.1.15,2013-10-10 11:37:00,
2013-10-10 06:43:00,56.3,52.2,29.69,South,169,9.0,15.0,86,0.00,,,0.00,0,Wunderground v.1.15,2013-10-10 11:43:00,
2013-10-10 06:48:00,56.2,52.1,29.69,SSE,148,13.0,16.0,86,0.00,,,0.00,0,Wunderground v.1.15,2013-10-10 11:48:00,
2013-10-10 06:53:00,56.2,52.1,29.69,SSE,167,12.0,15.0,86,0.00,,,0.00,0,Wunderground v.1.15,2013-10-10 11:53:00,
2013-10-10 06:58:00,56.0,51.9,29.69,South,173,14.0,16.0,86,0.00,,,0.00,0,Wunderground v.1.15,2013-10-10 11:58:00,
2013-10-10 07:03:00,56.0,52.2,29.68,South,179,9.0,17.0,87,0.00,,,0.00,0,Wunderground v.1.15,2013-10-10 12:03:00,
2013-10-10 07:08:00,56.0,51.9,29.68,South,191,10.0,20.0,86,0.00,,,0.00,0,Wunderground v.1.15,2013-10-10 12:08:00,
2013-10-10 07:13:00,55.8,52.0,29.68,SSE,162,11.0,16.0,87,0.00,,,0.00,0,Wunderground v.1.15,2013-10-10 12:13:00,
2013-10-10 07:18:00,55.7,51.9,29.68,SSE,160,12.0,17.0,87,0.00,,,0.00,0,Wunderground v.1.15,2013-10-10 12:18:00,
2013-10-10 07:23:00,55.6,51.8,29.68,South,177,10.0,13.0,87,0.00,,,0.00,0,Wunderground v.1.15,2013-10-10 12:23:00,
2013-10-10 07:28:00,55.5,51.7,29.68,SSE,165,8.0,13.0,87,0.00,,,0.00,0,Wunderground v.1.15,2013-10-10 12:28:00,
2013-10-10 07:33:00,55.3,51.5,29.68,SSE,159,10.0,13.0,87,0.00,,,0.00,0,Wunderground v.1.15,2013-10-10 12:33:00,
2013-10-10 07:38:00,55.3,51.5,29.68,South,180,10.0,13.0,87,0.00,,,0.00,0,Wunderground v.1.15,2013-10-10 12:38:00,
2013-10-10 07:43:00,55.3,51.5,29.68,SSE,157,9.0,13.0,87,0.00,,,0.00,0,Wunderground v.1.15,2013-10-10 12:43:00,
2013-10-10 07:48:00,55.3,51.5,29.68,SSE,164,6.0,13.0,87,0.00,,,0.00,7,Wunderground v.1.15,2013-10-10 12:48:00,
2013-10-10 07:53:00,55.2,51.4,29.68,South,176,7.0,13.0,87,0.00,,,0.00,12,Wunderground v.1.15,2013-10-10 12:53:00,
2013-10-10 07:58:00,55.1,51.6,29.68,SSE,165,10.0,13.0,88,0.00,,,0.00,18,Wunderground v.1.15,2013-10-10 12:58:00,
2013-10-10 08:03:00,55.2,51.7,29.68,South,171,8.0,16.0,88,0.00,,,0.00,21,Wunderground v.1.15,2013-10-10 13:03:00,
2013-10-10 08:08:00,55.3,51.8,29.68,South,169,14.0,16.0,88,0.00,,,0.00,28,Wunderground v.1.15,2013-10-10 13:08:00,
2013-10-10 08:13:00,55.5,52.0,29.68,South,171,9.0,16.0,88,0.00,,,0.00,35,Wunderground v.1.15,2013-10-10 13:13:00,
2013-10-10 08:18:00,55.7,52.2,29.68,SSE,161,14.0,18.0,88,0.00,,,0.00,42,Wunderground v.1.15,2013-10-10 13:18:00,
2013-10-10 08:23:00,55.8,52.3,29.68,SSE,167,13.0,19.0,88,0.00,,,0.00,56,Wunderground v.1.15,2013-10-10 13:23:00,
2013-10-10 08:28:00,56.0,52.2,29.68,South,176,14.0,19.0,87,0.00,,,0.00,69,Wunderground v.1.15,2013-10-10 13:28:00,
2013-10-10 08:33:00,56.2,52.4,29.68,South,173,12.0,16.0,87,0.00,,,0.00,81,Wunderground v.1.15,2013-10-10 13:33:00,
2013-10-10 08:38:00,56.5,52.7,29.68,SSE,161,11.0,16.0,87,0.00,,,0.00,95,Wunderground v.1.15,2013-10-10 13:38:00,
2013-10-10 08:43:00,56.7,52.9,29.67,South,174,14.0,16.0,87,0.00,,,0.00,113,Wunderground v.1.15,2013-10-10 13:43:00,
2013-10-10 08:48:00,57.0,53.2,29.68,SSE,167,11.0,19.0,87,0.00,,,0.00,128,Wunderground v.1.15,2013-10-10 13:48:00,
2013-10-10 08:53:00,57.2,53.0,29.68,South,182,14.0,16.0,86,0.00,,,0.00,146,Wunderground v.1.15,2013-10-10 13:53:00,
2013-10-10 08:58:00,57.5,53.3,29.68,South,169,13.0,18.0,86,0.00,,,0.00,163,Wunderground v.1.15,2013-10-10 13:58:00,
2013-10-10 09:03:00,57.9,53.4,29.68,South,180,12.0,19.0,85,0.00,,,0.00,179,Wunderground v.1.15,2013-10-10 14:03:00,
2013-10-10 09:08:00,58.2,53.7,29.69,South,178,14.0,19.0,85,0.00,,,0.00,199,Wunderground v.1.15,2013-10-10 14:08:00,
2013-10-10 09:13:00,58.5,54.0,29.69,South,189,11.0,18.0,85,0.00,,,0.00,216,Wunderground v.1.15,2013-10-10 14:13:00,
2013-10-10 09:18:00,58.9,54.1,29.69,South,169,9.0,19.0,84,0.00,,,0.00,234,Wunderground v.1.15,2013-10-10 14:18:00,
2013-10-10 09:23:00,59.4,54.6,29.69,SSE,166,11.0,19.0,84,0.00,,,0.00,250,Wunderground v.1.15,2013-10-10 14:23:00,
2013-10-10 09:28:00,60.0,54.8,29.69,SSE,164,17.0,19.0,83,0.00,,,0.00,262,Wunderground v.1.15,2013-10-10 14:28:00,
2013-10-10 09:33:00,60.5,55.0,29.69,SSE,163,15.0,21.0,82,0.00,,,0.00,276,Wunderground v.1.15,2013-10-10 14:33:00,
2013-10-10 09:38:00,60.9,55.0,29.69,South,182,18.0,22.0,81,0.00,,,0.00,288,Wunderground v.1.15,2013-10-10 14:38:00,
2013-10-10 09:43:00,61.2,55.0,29.68,South,175,15.0,23.0,80,0.00,,,0.00,304,Wunderground v.1.15,2013-10-10 14:43:00,
2013-10-10 09:48:00,61.5,54.9,29.68,SSW,192,10.0,23.0,79,0.00,,,0.00,320,Wunderground v.1.15,2013-10-10 14:48:00,
2013-10-10 09:53:00,61.9,55.3,29.68,South,186,10.0,20.0,79,0.00,,,0.00,338,Wunderground v.1.15,2013-10-10 14:53:00,
2013-10-10 09:58:00,62.1,55.2,29.68,South,184,21.0,21.0,78,0.00,,,0.00,353,Wunderground v.1.15,2013-10-10 14:58:00,
2013-10-10 10:03:00,62.5,55.5,29.68,South,181,16.0,21.0,78,0.00,,,0.00,376,Wunderground v.1.15,2013-10-10 15:03:00,
2013-10-10 10:08:00,62.6,55.3,29.67,SSW,192,17.0,21.0,77,0.00,,,0.00,387,Wunderground v.1.15,2013-10-10 15:08:00,
2013-10-10 10:13:00,62.6,54.9,29.67,South,178,15.0,23.0,76,0.00,,,0.00,345,Wunderground v.1.15,2013-10-10 15:13:00,
2013-10-10 10:18:00,63.0,55.7,29.67,South,180,19.0,23.0,77,0.00,,,0.00,459,Wunderground v.1.15,2013-10-10 15:18:00,
2013-10-10 10:23:00,63.4,55.7,29.67,SSW,192,20.0,20.0,76,0.00,,,0.00,427,Wunderground v.1.15,2013-10-10 15:23:00,
2013-10-10 10:28:00,63.8,56.1,29.67,SSE,166,17.0,22.0,76,0.00,,,0.00,434,Wunderground v.1.15,2013-10-10 15:28:00,
2013-10-10 10:33:00,63.9,55.4,29.67,SSE,150,18.0,20.0,74,0.00,,,0.00,439,Wunderground v.1.15,2013-10-10 15:33:00,
2013-10-10 10:38:00,64.0,55.5,29.67,South,170,14.0,21.0,74,0.00,,,0.00,404,Wunderground v.1.15,2013-10-10 15:38:00,
2013-10-10 10:43:00,64.4,56.3,29.66,SSE,167,14.0,21.0,75,0.00,,,0.00,471,Wunderground v.1.15,2013-10-10 15:43:00,
2013-10-10 10:48:00,64.6,56.1,29.66,SSE,167,18.0,22.0,74,0.00,,,0.00,441,Wunderground v.1.15,2013-10-10 15:48:00,
2013-10-10 10:53:00,64.7,56.2,29.66,SSE,168,15.0,21.0,74,0.00,,,0.00,490,Wunderground v.1.15,2013-10-10 15:53:00,
2013-10-10 10:58:00,64.7,55.8,29.66,South,182,12.0,23.0,73,0.00,,,0.00,503,Wunderground v.1.15,2013-10-10 15:58:00,
2013-10-10 11:03:00,65.0,55.8,29.66,SSW,197,12.0,24.0,72,0.00,,,0.00,508,Wunderground v.1.15,2013-10-10 16:03:00,
2013-10-10 11:08:00,65.2,55.6,29.66,SSE,157,15.0,24.0,71,0.00,,,0.00,520,Wunderground v.1.15,2013-10-10 16:08:00,
2013-10-10 11:13:00,65.6,55.9,29.66,SSE,165,19.0,22.0,71,0.00,,,0.00,529,Wunderground v.1.15,2013-10-10 16:13:00,
2013-10-10 11:18:00,65.9,56.2,29.66,SSW,205,18.0,24.0,71,0.00,,,0.00,541,Wunderground v.1.15,2013-10-10 16:18:00,
2013-10-10 11:23:00,66.3,56.2,29.66,South,175,22.0,27.0,70,0.00,,,0.00,552,Wunderground v.1.15,2013-10-10 16:23:00,
2013-10-10 11:28:00,66.2,56.1,29.65,South,180,16.0,27.0,70,0.00,,,0.00,563,Wunderground v.1.15,2013-10-10 16:28:00,
2013-10-10 11:34:00,66.3,56.2,29.65,SSE,163,15.0,24.0,70,0.00,,,0.00,575,Wunderground v.1.15,2013-10-10 16:34:00,
2013-10-10 11:39:00,66.4,56.3,29.65,SSW,208,12.0,24.0,70,0.00,,,0.00,580,Wunderground v.1.15,2013-10-10 16:39:00,
2013-10-10 11:44:00,66.9,56.0,29.65,SSE,157,21.0,26.0,68,0.00,,,0.00,584,Wunderground v.1.15,2013-10-10 16:44:00,
2013-10-10 11:49:00,67.0,56.5,29.65,SSE,166,11.0,26.0,69,0.00,,,0.00,596,Wunderground v.1.15,2013-10-10 16:49:00,
2013-10-10 11:54:00,67.4,56.5,29.64,SSE,168,19.0,20.0,68,0.00,,,0.00,615,Wunderground v.1.15,2013-10-10 16:54:00,
2013-10-10 11:59:00,67.6,56.2,29.64,South,188,15.0,21.0,67,0.00,,,0.00,626,Wunderground v.1.15,2013-10-10 16:59:00,
2013-10-10 12:04:00,68.0,56.6,29.64,South,190,19.0,19.0,67,0.00,,,0.00,615,Wunderground v.1.15,2013-10-10 17:04:00,
2013-10-10 12:09:00,68.1,57.5,29.64,SSE,149,15.0,21.0,69,0.00,,,0.00,657,Wunderground v.1.15,2013-10-10 17:09:00,
2013-10-10 12:14:00,68.1,56.3,29.63,South,179,12.0,24.0,66,0.00,,,0.00,578,Wunderground v.1.15,2013-10-10 17:14:00,
2013-10-10 12:19:00,67.9,56.5,29.63,SSE,165,13.0,24.0,67,0.00,,,0.00,383,Wunderground v.1.15,2013-10-10 17:19:00,
2013-10-10 12:24:00,67.7,56.3,29.63,South,170,10.0,24.0,67,0.00,,,0.00,573,Wunderground v.1.15,2013-10-10 17:24:00,
2013-10-10 12:29:00,68.1,56.7,29.64,South,181,13.0,24.0,67,0.00,,,0.00,504,Wunderground v.1.15,2013-10-10 17:29:00,
2013-10-10 12:34:00,68.1,56.3,29.64,SSE,166,14.0,18.0,66,0.00,,,0.00,543,Wunderground v.1.15,2013-10-10 17:34:00,
2013-10-10 12:39:00,68.6,57.6,29.64,South,176,15.0,18.0,68,0.00,,,0.00,617,Wunderground v.1.15,2013-10-10 17:39:00,
2013-10-10 12:44:00,68.3,56.5,29.64,South,190,16.0,22.0,66,0.00,,,0.00,383,Wunderground v.1.15,2013-10-10 17:44:00,
2013-10-10 12:49:00,67.9,56.1,29.64,South,170,11.0,22.0,66,0.00,,,0.00,394,Wunderground v.1.15,2013-10-10 17:49:00,
2013-10-10 12:54:00,67.8,56.9,29.63,SSE,164,13.0,18.0,68,0.00,,,0.00,313,Wunderground v.1.15,2013-10-10 17:54:00,
2013-10-10 12:59:00,68.1,56.7,29.63,SE,142,14.0,21.0,67,0.00,,,0.00,679,Wunderground v.1.15,2013-10-10 17:59:00,
2013-10-10 13:04:00,68.8,57.4,29.63,SSE,159,10.0,23.0,67,0.00,,,0.00,589,Wunderground v.1.15,2013-10-10 18:04:00,
2013-10-10 13:09:00,68.9,57.1,29.62,SSE,155,11.0,23.0,66,0.00,,,0.00,577,Wunderground v.1.15,2013-10-10 18:09:00,
2013-10-10 13:14:00,69.5,57.2,29.62,SSE,166,17.0,22.0,65,0.00,,,0.00,564,Wunderground v.1.15,2013-10-10 18:14:00,
2013-10-10 13:19:00,69.6,57.7,29.62,South,171,12.0,22.0,66,0.00,,,0.00,775,Wunderground v.1.15,2013-10-10 18:19:00,
2013-10-10 13:24:00,70.3,57.5,29.62,SE,146,22.0,24.0,64,0.00,,,0.00,652,Wunderground v.1.15,2013-10-10 18:24:00,
2013-10-10 13:29:00,70.5,57.3,29.61,South,171,16.0,24.0,63,0.00,,,0.00,700,Wunderground v.1.15,2013-10-10 18:29:00,
2013-10-10 13:34:00,70.3,57.1,29.61,South,175,24.0,24.0,63,0.00,,,0.00,645,Wunderground v.1.15,2013-10-10 18:34:00,
2013-10-10 13:39:00,70.8,58.9,29.61,SSE,152,21.0,24.0,66,0.00,,,0.00,800,Wunderground v.1.15,2013-10-10 18:39:00,
2013-10-10 13:44:00,71.1,57.0,29.61,SSE,166,16.0,25.0,61,0.00,,,0.00,729,Wunderground v.1.15,2013-10-10 18:44:00,
2013-10-10 13:49:00,71.2,57.5,29.60,South,171,18.0,25.0,62,0.00,,,0.00,708,Wunderground v.1.15,2013-10-10 18:49:00,
2013-10-10 13:54:00,71.5,57.8,29.60,South,169,14.0,22.0,62,0.00,,,0.00,659,Wunderground v.1.15,2013-10-10 18:54:00,
2013-10-10 13:59:00,71.8,57.6,29.60,South,175,15.0,22.0,61,0.00,,,0.00,601,Wunderground v.1.15,2013-10-10 18:59:00,
2013-10-10 14:04:00,72.0,57.8,29.59,SSE,162,12.0,22.0,61,0.00,,,0.00,640,Wunderground v.1.15,2013-10-10 19:04:00,
2013-10-10 14:09:00,72.1,57.9,29.59,SSW,203,17.0,26.0,61,0.00,,,0.00,707,Wunderground v.1.15,2013-10-10 19:09:00,
2013-10-10 14:14:00,72.1,57.4,29.59,SSE,161,16.0,26.0,60,0.00,,,0.00,645,Wunderground v.1.15,2013-10-10 19:14:00,
2013-10-10 14:19:00,72.0,57.4,29.59,South,171,16.0,26.0,60,0.00,,,0.00,622,Wunderground v.1.15,2013-10-10 19:19:00,
2013-10-10 19:17:00,72.7,57.5,29.50,SSE,155,18.0,18.0,59,0.00,,,0.00,0,Wunderground v.1.15,2013-10-11 00:17:00,
2013-10-10 19:18:00,72.7,57.5,29.50,SSE,161,22.0,22.0,59,0.00,,,0.00,0,Wunderground v.1.15,2013-10-11 00:18:00,
2013-10-10 19:23:00,72.6,57.4,29.50,SSE,154,14.0,26.0,59,0.00,,,0.00,0,Wunderground v.1.15,2013-10-11 00:23:00,
2013-10-10 19:28:00,72.5,57.8,29.50,SE,146,18.0,26.0,60,0.00,,,0.00,0,Wunderground v.1.15,2013-10-11 00:28:00,
2013-10-10 19:34:00,72.1,57.4,29.50,SSE,156,20.0,24.0,60,0.00,,,0.00,0,Wunderground v.1.15,2013-10-11 00:34:00,
2013-10-10 19:39:00,71.9,57.7,29.50,SSE,161,13.0,24.0,61,0.00,,,0.00,0,Wunderground v.1.15,2013-10-11 00:39:00,
2013-10-10 19:44:00,72.2,57.5,29.50,SSE,150,20.0,26.0,60,0.00,,,0.00,0,Wunderground v.1.15,2013-10-11 00:44:00,
2013-10-10 19:49:00,72.1,57.9,29.50,SSE,161,16.0,26.0,61,0.00,,,0.00,0,Wunderground v.1.15,2013-10-11 00:49:00,
2013-10-10 19:54:00,72.1,57.9,29.50,SSE,155,24.0,28.0,61,0.00,,,0.00,0,Wunderground v.1.15,2013-10-11 00:54:00,
2013-10-10 19:59:00,72.1,57.9,29.50,SSE,167,27.0,31.0,61,0.00,,,0.00,0,Wunderground v.1.15,2013-10-11 00:59:00,
2013-10-10 20:04:00,72.0,57.8,29.49,SSE,152,20.0,27.0,61,0.00,,,0.00,0,Wunderground v.1.15,2013-10-11 01:04:00,
2013-10-10 20:09:00,71.8,58.1,29.49,South,175,17.0,29.0,62,0.00,,,0.00,0,Wunderground v.1.15,2013-10-11 01:09:00,
2013-10-10 20:14:00,71.9,58.2,29.49,SSE,157,20.0,30.0,62,0.00,,,0.00,0,Wunderground v.1.15,2013-10-11 01:14:00,
2013-10-10 20:19:00,71.3,58.1,29.49,SSE,153,17.0,30.0,63,0.00,,,0.00,0,Wunderground v.1.15,2013-10-11 01:19:00,
2013-10-10 20:24:00,70.8,58.0,29.49,SE,145,17.0,25.0,64,0.00,,,0.00,0,Wunderground v.1.15,2013-10-11 01:24:00,
2013-10-10 20:29:00,70.9,58.5,29.49,SSE,161,22.0,28.0,65,0.00,,,0.00,0,Wunderground v.1.15,2013-10-11 01:29:00,
2013-10-10 20:34:00,70.9,58.5,29.49,SSE,155,22.0,30.0,65,0.00,,,0.00,0,Wunderground v.1.15,2013-10-11 01:34:00,
2013-10-10 20:39:00,70.8,58.4,29.49,SSE,150,17.0,35.0,65,0.00,,,0.00,0,Wunderground v.1.15,2013-10-11 01:39:00,
2013-10-10 20:44:00,70.7,58.4,29.49,South,169,22.0,34.0,65,0.00,,,0.00,0,Wunderground v.1.15,2013-10-11 01:44:00,
2013-10-10 20:49:00,70.6,58.3,29.49,SSE,161,28.0,34.0,65,0.00,,,0.00,0,Wunderground v.1.15,2013-10-11 01:49:00,
2013-10-10 20:54:00,70.5,58.6,29.49,SE,146,24.0,32.0,66,0.00,,,0.00,0,Wunderground v.1.15,2013-10-11 01:54:00,
2013-10-10 20:59:00,70.5,58.6,29.48,SSE,153,16.0,37.0,66,0.00,,,0.00,0,Wunderground v.1.15,2013-10-11 01:59:00,
2013-10-10 21:04:00,70.2,58.3,29.48,SSE,155,16.0,31.0,66,0.00,,,0.00,0,Wunderground v.1.15,2013-10-11 02:04:00,
2013-10-10 21:09:00,69.7,58.3,29.48,SE,145,20.0,31.0,67,0.00,,,0.00,0,Wunderground v.1.15,2013-10-11 02:09:00,
2013-10-10 21:14:00,69.3,58.3,29.47,South,173,19.0,31.0,68,0.00,,,0.00,0,Wunderground v.1.15,2013-10-11 02:14:00,
2013-10-10 21:19:00,69.0,58.4,29.46,SSE,162,25.0,31.0,69,0.00,,,0.00,0,Wunderground v.1.15,2013-10-11 02:19:00,
2013-10-10 21:24:00,69.0,58.4,29.45,SSE,157,18.0,30.0,69,0.00,,,0.00,0,Wunderground v.1.15,2013-10-11 02:24:00,
2013-10-10 21:29:00,68.6,58.4,29.45,SSE,157,18.0,30.0,70,0.00,,,0.00,0,Wunderground v.1.15,2013-10-11 02:29:00,
2013-10-10 21:34:00,68.6,58.8,29.45,SSE,160,30.0,34.0,71,0.00,,,0.00,0,Wunderground v.1.15,2013-10-11 02:34:00,
2013-10-10 21:39:00,68.7,58.5,29.45,SSE,158,32.0,37.0,70,0.00,,,0.00,0,Wunderground v.1.15,2013-10-11 02:39:00,
2013-10-10 21:44:00,68.8,58.6,29.45,SSE,152,22.0,32.0,70,0.00,,,0.00,0,Wunderground v.1.15,2013-10-11 02:44:00,
2013-10-10 21:49:00,68.7,58.5,29.45,South,170,20.0,37.0,70,0.00,,,0.00,0,Wunderground v.1.15,2013-10-11 02:49:00,
2013-10-10 21:54:00,68.5,58.7,29.45,SSE,159,24.0,34.0,71,0.00,,,0.00,0,Wunderground v.1.15,2013-10-11 02:54:00,
2013-10-10 21:59:00,68.5,58.7,29.45,SE,136,24.0,36.0,71,0.00,,,0.00,0,Wunderground v.1.15,2013-10-11 02:59:00,
2013-10-10 22:04:00,68.4,58.6,29.45,SE,143,27.0,35.0,71,0.00,,,0.00,0,Wunderground v.1.15,2013-10-11 03:04:00,
2013-10-10 22:09:00,68.3,58.5,29.45,SSE,161,17.0,35.0,71,0.00,,,0.00,0,Wunderground v.1.15,2013-10-11 03:09:00,
2013-10-10 22:14:00,68.1,58.3,29.45,SSE,152,22.0,32.0,71,0.00,,,0.00,0,Wunderground v.1.15,2013-10-11 03:14:00,
2013-10-10 22:19:00,68.0,58.6,29.45,SSE,157,20.0,38.0,72,0.00,,,0.00,0,Wunderground v.1.15,2013-10-11 03:19:00,
2013-10-10 22:24:00,67.9,58.5,29.45,SSE,160,23.0,36.0,72,0.00,,,0.00,0,Wunderground v.1.15,2013-10-11 03:24:00,
2013-10-10 22:29:00,67.8,58.4,29.46,South,169,15.0,39.0,72,0.00,,,0.00,0,Wunderground v.1.15,2013-10-11 03:29:00,
2013-10-10 22:34:00,67.7,58.3,29.45,SSE,147,18.0,30.0,72,0.00,,,0.00,0,Wunderground v.1.15,2013-10-11 03:34:00,
2013-10-10 22:39:00,67.5,58.5,29.45,SSE,159,26.0,32.0,73,0.00,,,0.00,0,Wunderground v.1.15,2013-10-11 03:39:00,
2013-10-10 22:44:00,67.4,58.4,29.46,SSE,164,22.0,34.0,73,0.00,,,0.00,0,Wunderground v.1.15,2013-10-11 03:44:00,
2013-10-10 22:49:00,67.2,58.2,29.45,South,173,19.0,39.0,73,0.00,,,0.00,0,Wunderground v.1.15,2013-10-11 03:49:00,
2013-10-10 22:54:00,67.2,58.6,29.45,SE,130,19.0,37.0,74,0.00,,,0.00,0,Wunderground v.1.15,2013-10-11 03:54:00,
2013-10-10 22:59:00,67.0,58.4,29.45,South,171,13.0,37.0,74,0.00,,,0.00,0,Wunderground v.1.15,2013-10-11 03:59:00,
2013-10-10 23:01:00,67.0,58.4,29.45,SSE,164,25.0,26.0,74,0.00,,,0.00,0,Wunderground v.1.15,2013-10-11 04:01:00,
2013-10-10 23:06:00,67.0,58.4,29.45,SE,142,19.0,32.0,74,0.00,,,0.00,0,Wunderground v.1.15,2013-10-11 04:06:00,
2013-10-10 23:11:00,66.9,58.3,29.45,South,176,25.0,29.0,74,0.00,,,0.00,0,Wunderground v.1.15,2013-10-11 04:11:00,
2013-10-10 23:16:00,67.0,58.4,29.45,SSE,158,26.0,36.0,74,0.00,,,0.00,0,Wunderground v.1.15,2013-10-11 04:16:00,
2013-10-10 23:21:00,66.8,58.2,29.45,SSE,155,28.0,36.0,74,0.00,,,0.00,0,Wunderground v.1.15,2013-10-11 04:21:00,
2013-10-10 23:26:00,66.6,58.4,29.46,South,170,25.0,36.0,75,0.00,,,0.00,0,Wunderground v.1.15,2013-10-11 04:26:00,
2013-10-10 23:31:00,66.7,58.5,29.46,SSE,161,25.0,35.0,75,0.00,,,0.00,0,Wunderground v.1.15,2013-10-11 04:31:00,
2013-10-10 23:36:00,66.6,58.4,29.46,SSE,163,17.0,39.0,75,0.00,,,0.00,0,Wunderground v.1.15,2013-10-11 04:36:00,
2013-10-10 23:41:00,66.4,58.6,29.46,South,179,28.0,29.0,76,0.00,,,0.00,0,Wunderground v.1.15,2013-10-11 04:41:00,
2013-10-10 23:46:00,66.3,58.5,29.45,South,171,18.0,31.0,76,0.00,,,0.00,0,Wunderground v.1.15,2013-10-11 04:46:00,
2013-10-10 23:51:00,66.2,58.4,29.45,South,178,20.0,25.0,76,0.00,,,0.00,0,Wunderground v.1.15,2013-10-11 04:51:00,
2013-10-10 23:56:00,66.2,58.4,29.46,SSW,192,21.0,31.0,76,0.00,,,0.00,0,Wunderground v.1.15,2013-10-11 04:56:00,